Date String (YYYY-MM-DD hh:mm:ss) UTC,Instrument flags,Ambient pressure (hPa),Sample flow (lpm),Bypass flow (lpm),Sample temperature (°C),Ambient temperature (°C),ASC tube jacket temperature (°C),LED temperature (°C),Box temperature (°C),Sample RH (%),Span deviation,Mass concentration (μg/m³),Mass concentration (μg/m³),Mass concentration (μg/m³)
DateTimeUTC,F1_M11,P_M11,Q1_M11,Q2_M11,T1_M11,T2_M11,T3_M11,T4_M11,T5_M11,U1_M11,ZSPAN_M11,X0_M11,X2_M11,X1_M11
2022-12-17 07:00:00,,0820.9,5.02,0.00,21.5,19.9,00.0,30.4,23.1,03.9,0000.0,0002.34,0001.46,0001.19
2022-12-17 07:01:00,,0820.9,5.01,0.00,21.5,19.7,00.0,30.4,23.0,03.9,0000.0,0002.38,0001.45,0001.19
2022-12-17 07:02:00,,0820.9,4.99,0.00,21.4,19.9,00.0,30.4,23.0,03.9,0000.0,0002.66,0001.45,0001.19
2022-12-17 07:03:00,,0820.9,5.01,0.00,21.5,20.9,00.0,30.3,23.2,03.9,0000.0,0002.70,0001.46,0001.18
2022-12-17 07:04:00,,0820.9,4.98,0.00,21.6,21.8,00.0,30.3,23.5,04.0,0000.0,0002.56,0001.43,0001.18
2022-12-17 07:05:00,,0820.9,5.01,0.00,21.7,21.6,00.0,30.4,23.6,04.0,0000.0,0002.53,0001.44,0001.17
2022-12-17 07:06:00,,0820.9,5.00,0.00,21.7,21.2,00.0,30.4,23.5,03.9,0000.0,0002.60,0001.48,0001.18
2022-12-17 07:07:00,,0820.9,4.97,0.00,21.6,20.8,00.0,30.4,23.3,03.9,0000.0,0003.93,0001.50,0001.18
2022-12-17 07:08:00,,0820.9,5.05,0.00,21.6,20.5,00.0,30.5,23.2,03.9,0000.0,0003.87,0001.49,0001.18
2022-12-17 07:09:00,,0820.9,4.96,0.00,21.5,20.2,00.0,30.4,23.2,03.8,0000.0,0003.82,0001.48,0001.18
2022-12-17 07:10:00,,0820.9,5.03,0.00,21.5,20.0,00.0,30.4,23.1,04.0,0000.0,0003.85,0001.49,0001.17
2022-12-17 07:11:00,,0820.9,4.95,0.00,21.5,19.9,00.0,30.4,23.0,03.9,0000.0,0003.88,0001.49,0001.17
2022-12-17 07:12:00,,0820.9,5.05,0.00,21.5,20.4,00.0,30.4,23.2,03.9,0000.0,0003.82,0001.49,0001.16
2022-12-17 07:13:00,,0821.0,4.98,0.00,21.6,21.5,00.0,30.3,23.4,04.0,0000.0,0003.47,0001.46,0001.15
2022-12-17 07:14:00,,0820.9,4.99,0.00,21.7,21.9,00.0,30.4,23.6,03.9,0000.0,0003.42,0001.44,0001.13
2022-12-17 07:15:00,,0820.9,5.03,0.00,21.7,21.5,00.0,30.4,23.6,03.9,0000.0,0003.44,0001.45,0001.12
2022-12-17 07:16:00,,0820.9,4.97,0.00,21.7,21.1,00.0,30.5,23.5,03.9,0000.0,0003.44,0001.45,0001.12
2022-12-17 07:17:00,,0820.9,5.04,0.00,21.7,20.7,00.0,30.5,23.4,04.0,0000.0,0003.34,0001.40,0001.11
2022-12-17 07:18:00,,0821.0,4.96,0.00,21.7,20.4,00.0,30.5,23.3,04.0,0000.0,0002.25,0001.37,0001.11
2022-12-17 07:19:00,,0820.9,5.03,0.00,21.6,20.2,00.0,30.5,23.3,04.0,0000.0,0002.04,0001.40,0001.11
2022-12-17 07:20:00,,0820.8,4.96,0.00,21.6,20.2,00.0,30.5,23.2,04.0,0000.0,0002.06,0001.41,0001.12
2022-12-17 07:21:00,,0820.8,5.03,0.00,21.6,20.0,00.0,30.5,23.2,04.0,0000.0,0002.12,0001.39,0001.12
2022-12-17 07:22:00,,0820.8,4.98,0.00,21.5,20.3,00.0,30.4,23.2,03.9,0000.0,0002.13,0001.38,0001.11
2022-12-17 07:23:00,,0820.8,5.02,0.00,21.6,21.4,00.0,30.4,23.5,03.8,0000.0,0002.17,0001.39,0001.11
2022-12-17 07:24:00,,0820.8,4.96,0.00,21.8,21.9,00.0,30.4,23.7,03.8,0000.0,0002.24,0001.40,0001.10
2022-12-17 07:25:00,,0820.8,5.05,0.00,21.8,21.4,00.0,30.5,23.6,03.8,0000.0,0002.35,0001.45,0001.11
2022-12-17 07:26:00,,0820.8,4.97,0.00,21.7,20.9,00.0,30.5,23.4,03.8,0000.0,0002.36,0001.46,0001.11
2022-12-17 07:27:00,,0820.8,5.01,0.00,21.7,20.3,00.0,30.5,23.3,03.8,0000.0,0002.41,0001.48,0001.11
2022-12-17 07:28:00,,0820.8,4.98,0.00,21.6,19.9,00.0,30.5,23.1,03.9,0000.0,0002.40,0001.47,0001.10
2022-12-17 07:29:00,,0820.8,5.04,0.00,21.5,19.5,00.0,30.5,23.0,03.9,0000.0,0002.38,0001.46,0001.10
2022-12-17 07:30:00,,0820.8,4.95,0.00,21.4,19.3,00.0,30.5,22.9,03.9,0000.0,0002.33,0001.41,0001.09
2022-12-17 07:31:00,,0820.8,5.04,0.00,21.4,19.6,00.0,30.4,22.9,03.9,0000.0,0002.28,0001.40,0001.07
2022-12-17 07:32:00,,0820.8,4.98,0.00,21.5,20.9,00.0,30.3,23.2,03.9,0000.0,0002.15,0001.38,0001.07
2022-12-17 07:33:00,,0820.7,4.99,0.00,21.6,21.7,00.0,30.4,23.5,03.8,0000.0,0002.15,0001.37,0001.06
2022-12-17 07:34:00,,0820.7,5.04,0.00,21.6,21.5,00.0,30.4,23.5,03.8,0000.0,0002.14,0001.37,0001.07
2022-12-17 07:35:00,,0820.7,4.98,0.00,21.6,21.0,00.0,30.4,23.4,03.8,0000.0,0002.18,0001.40,0001.08
2022-12-17 07:36:00,,0820.7,5.03,0.00,21.6,20.6,00.0,30.5,23.3,03.8,0000.0,0002.15,0001.36,0001.08
2022-12-17 07:37:00,,0820.7,4.98,0.00,21.6,20.4,00.0,30.5,23.3,03.8,0000.0,0002.23,0001.34,0001.08
2022-12-17 07:38:00,,0820.7,5.00,0.00,21.6,20.3,00.0,30.5,23.3,03.8,0000.0,0002.24,0001.32,0001.07
2022-12-17 07:39:00,,0820.7,5.01,0.00,21.6,20.2,00.0,30.5,23.3,03.8,0000.0,0002.31,0001.36,0001.09
2022-12-17 07:40:00,,0820.7,5.04,0.00,21.5,20.0,00.0,30.5,23.2,03.8,0000.0,0002.37,0001.38,0001.10
2022-12-17 07:41:00,,0820.7,4.96,0.00,21.5,19.9,00.0,30.4,23.1,03.8,0000.0,0002.39,0001.39,0001.11
2022-12-17 07:42:00,,0820.6,5.03,0.00,21.5,19.7,00.0,30.4,23.0,03.9,0000.0,0002.41,0001.39,0001.11
2022-12-17 07:43:00,,0820.6,4.96,0.00,21.5,20.2,00.0,30.4,23.1,03.9,0000.0,0002.41,0001.39,0001.12
2022-12-17 07:44:00,,0820.7,5.05,0.00,21.6,21.3,00.0,30.3,23.4,03.9,0000.0,0002.34,0001.39,0001.12
2022-12-17 07:45:00,,0820.7,4.96,0.00,21.7,21.7,00.0,30.4,23.5,03.9,0000.0,0002.35,0001.40,0001.12
2022-12-17 07:46:00,,0820.6,5.06,0.00,21.6,21.1,00.0,30.4,23.4,03.9,0000.0,0002.28,0001.36,0001.12
2022-12-17 07:47:00,,0820.7,4.96,0.00,21.6,20.5,00.0,30.4,23.2,03.9,0000.0,0002.29,0001.35,0001.11
2022-12-17 07:48:00,,0820.6,5.05,0.00,21.5,20.0,00.0,30.4,23.1,03.9,0000.0,0002.21,0001.38,0001.12
2022-12-17 07:49:00,,0820.6,4.95,0.00,21.4,19.7,00.0,30.4,23.0,03.9,0000.0,0002.26,0001.42,0001.13
2022-12-17 07:50:00,,0820.6,5.02,0.00,21.4,19.4,00.0,30.4,22.8,03.9,0000.0,0002.22,0001.42,0001.13
2022-12-17 07:51:00,,0820.6,5.03,0.00,21.3,19.2,00.0,30.4,22.8,04.0,0000.0,0002.20,0001.41,0001.12
2022-12-17 07:52:00,,0820.6,4.97,0.00,21.3,19.7,00.0,30.3,22.9,04.0,0000.0,0002.21,0001.42,0001.11
2022-12-17 07:53:00,,0820.6,5.04,0.00,21.4,21.1,00.0,30.3,23.2,03.9,0000.0,0002.18,0001.43,0001.11
2022-12-17 07:54:00,,0820.6,4.95,0.00,21.5,21.6,00.0,30.3,23.4,03.9,0000.0,0002.21,0001.44,0001.10
2022-12-17 07:55:00,,0820.6,5.04,0.00,21.5,21.1,00.0,30.3,23.4,03.9,0000.0,0002.36,0001.50,0001.11
2022-12-17 07:56:00,,0820.6,4.97,0.00,21.5,20.6,00.0,30.4,23.2,03.9,0000.0,0002.53,0001.52,0001.11
2022-12-17 07:57:00,,0820.6,5.01,0.00,21.5,20.2,00.0,30.4,23.1,04.0,0000.0,0002.66,0001.53,0001.11
2022-12-17 07:58:00,,0820.6,4.99,0.00,21.4,19.9,00.0,30.4,23.0,04.0,0000.0,0002.68,0001.54,0001.12
2022-12-17 07:59:00,,0820.6,5.03,0.00,21.4,19.7,00.0,30.4,23.0,04.0,0000.0,0002.64,0001.55,0001.13
